Time,TemperatureF,DewpointF,PressureIn,WindDirection,WindDirectionDegrees,WindSpeedMPH,WindSpeedGustMPH,Humidity,HourlyPrecipIn,Conditions,Clouds,dailyrainin,SoftwareType,DateUTC
2013-07-29 00:02:00,79.0,70.0,29.91,North,0,0.0,0.0,75,0.00,,,0.00,,2013-07-29 05:02:00,
2013-07-29 00:12:00,79.0,70.0,29.91,North,0,0.0,0.0,75,0.00,,,0.00,,2013-07-29 05:12:00,
2013-07-29 00:22:00,79.0,70.0,29.91,North,0,0.0,0.0,75,0.00,,,0.00,,2013-07-29 05:22:00,
2013-07-29 00:32:00,79.0,71.0,29.91,North,0,0.0,0.0,77,0.00,,,0.00,,2013-07-29 05:32:00,
2013-07-29 00:42:00,79.0,71.0,29.91,North,0,0.0,0.0,77,0.00,,,0.00,,2013-07-29 05:42:00,
2013-07-29 00:53:00,79.0,71.0,29.91,North,0,0.0,0.0,77,0.00,,,0.00,,2013-07-29 05:53:00,
2013-07-29 01:02:00,78.0,72.0,29.92,North,0,0.0,0.0,81,0.00,,,0.00,,2013-07-29 06:02:00,
2013-07-29 01:12:00,78.0,72.0,29.92,North,0,0.0,0.0,81,0.00,,,0.00,,2013-07-29 06:12:00,
2013-07-29 01:22:00,78.0,72.0,29.92,North,0,0.0,0.0,81,0.00,,,0.00,,2013-07-29 06:22:00,
2013-07-29 01:32:00,78.0,72.0,29.92,North,0,0.0,0.0,83,0.00,,,0.00,,2013-07-29 06:32:00,
2013-07-29 01:43:00,78.0,72.0,29.92,North,0,0.0,0.0,83,0.00,,,0.00,,2013-07-29 06:43:00,
2013-07-29 01:52:00,78.0,72.0,29.92,North,0,0.0,0.0,83,0.00,,,0.00,,2013-07-29 06:52:00,
2013-07-29 02:02:00,78.0,72.0,29.92,North,0,0.0,0.0,83,0.00,,,0.00,,2013-07-29 07:02:00,
2013-07-29 02:12:00,77.0,72.0,29.92,North,0,0.0,0.0,84,0.00,,,0.00,,2013-07-29 07:12:00,
2013-07-29 02:22:00,77.0,72.0,29.92,North,0,0.0,0.0,84,0.00,,,0.00,,2013-07-29 07:22:00,
2013-07-29 02:33:00,77.0,72.0,29.92,North,0,0.0,0.0,84,0.00,,,0.00,,2013-07-29 07:33:00,
2013-07-29 02:43:00,77.0,72.0,29.92,North,0,0.0,0.0,84,0.00,,,0.00,,2013-07-29 07:43:00,
2013-07-29 02:53:00,77.0,72.0,29.92,North,0,0.0,0.0,84,0.00,,,0.00,,2013-07-29 07:53:00,
2013-07-29 04:12:00,78.0,73.0,29.92,North,0,0.0,0.0,84,0.00,,,0.00,,2013-07-29 09:12:00,
2013-07-29 04:22:00,78.0,73.0,29.92,North,0,0.0,0.0,84,0.00,,,0.00,,2013-07-29 09:22:00,
2013-07-29 04:33:00,78.0,73.0,29.92,North,0,0.0,0.0,84,0.00,,,0.00,,2013-07-29 09:33:00,
2013-07-29 04:43:00,78.0,73.0,29.92,North,0,0.0,0.0,84,0.00,,,0.00,,2013-07-29 09:43:00,
2013-07-29 04:53:00,78.0,73.0,29.92,North,0,0.0,0.0,84,0.00,,,0.00,,2013-07-29 09:53:00,
2013-07-29 05:39:00,77.0,71.0,29.94,North,0,0.0,0.0,83,0.00,,,0.00,,2013-07-29 10:39:00,
2013-07-29 05:55:00,77.0,71.0,29.94,North,0,0.0,0.0,83,0.00,,,0.00,,2013-07-29 10:55:00,
2013-07-29 06:24:00,76.0,71.0,29.93,North,0,0.0,0.0,84,0.00,,,0.00,,2013-07-29 11:24:00,
2013-07-29 06:35:00,76.0,71.0,29.93,North,0,0.0,0.0,84,0.00,,,0.00,,2013-07-29 11:35:00,
2013-07-29 06:44:00,76.0,71.0,29.93,North,0,0.0,0.0,84,0.00,,,0.00,,2013-07-29 11:44:00,
2013-07-29 06:54:00,76.0,71.0,29.93,North,0,0.0,0.0,84,0.00,,,0.00,,2013-07-29 11:54:00,
2013-07-29 07:28:00,75.0,70.0,29.95,North,0,0.0,0.0,85,0.00,,,0.00,,2013-07-29 12:28:00,
2013-07-29 07:37:00,75.0,70.0,29.95,North,0,0.0,0.0,85,0.00,,,0.00,,2013-07-29 12:37:00,
2013-07-29 07:49:00,75.0,70.0,29.95,North,0,0.0,0.0,85,0.00,,,0.00,,2013-07-29 12:49:00,
2013-07-29 08:16:00,75.0,71.0,29.96,North,0,0.0,0.0,86,0.00,,,0.00,,2013-07-29 13:16:00,
2013-07-29 08:36:00,75.0,71.0,29.96,North,0,0.0,0.0,86,0.00,,,0.00,,2013-07-29 13:36:00,
2013-07-29 09:57:00,80.0,71.0,29.99,North,0,0.0,0.0,74,0.00,,,0.00,,2013-07-29 14:57:00,
2013-07-29 10:07:00,80.0,71.0,29.99,North,0,0.0,0.0,74,0.00,,,0.00,,2013-07-29 15:07:00,
2013-07-29 10:10:00,81.0,70.0,30.00,North,0,0.0,0.0,69,0.00,,,0.00,,2013-07-29 15:10:00,
2013-07-29 10:36:00,81.0,70.0,30.00,North,0,0.0,0.0,69,0.00,,,0.00,,2013-07-29 15:36:00,
2013-07-29 10:45:00,81.0,70.0,30.00,North,0,0.0,0.0,69,0.00,,,0.00,,2013-07-29 15:45:00,
2013-07-29 10:55:00,81.0,70.0,30.00,North,0,0.0,0.0,69,0.00,,,0.00,,2013-07-29 15:55:00,
2013-07-29 11:04:00,81.0,70.0,30.00,North,0,0.0,0.0,69,0.00,,,0.00,,2013-07-29 16:04:00,
2013-07-29 12:41:00,92.0,71.0,29.99,North,0,0.0,0.0,50,0.00,,,0.00,,2013-07-29 17:41:00,
2013-07-29 13:06:00,92.0,71.0,29.99,North,0,0.0,0.0,50,0.00,,,0.00,,2013-07-29 18:06:00,
2013-07-29 13:14:00,92.0,71.0,29.99,North,0,0.0,0.0,50,0.00,,,0.00,,2013-07-29 18:14:00,
2013-07-29 13:26:00,92.0,71.0,29.99,North,0,0.0,0.0,50,0.00,,,0.00,,2013-07-29 18:26:00,
2013-07-29 13:34:00,92.0,71.0,29.99,North,0,0.0,0.0,50,0.00,,,0.00,,2013-07-29 18:34:00,
2013-07-29 14:03:00,94.0,69.0,29.98,North,0,0.0,0.0,44,0.00,,,0.00,,2013-07-29 19:03:00,
2013-07-29 14:15:00,94.0,69.0,29.98,North,0,0.0,0.0,44,0.00,,,0.00,,2013-07-29 19:15:00,
2013-07-29 14:25:00,94.0,69.0,29.98,North,0,0.0,0.0,44,0.00,,,0.00,,2013-07-29 19:25:00,
2013-07-29 14:36:00,95.0,70.0,29.97,North,0,0.0,0.0,44,0.00,,,0.00,,2013-07-29 19:36:00,
2013-07-29 14:44:00,95.0,70.0,29.97,North,0,0.0,0.0,44,0.00,,,0.00,,2013-07-29 19:44:00,
2013-07-29 14:58:00,95.0,67.0,29.97,North,0,0.0,0.0,40,0.00,,,0.00,,2013-07-29 19:58:00,
2013-07-29 15:04:00,95.0,67.0,29.97,North,0,0.0,0.0,40,0.00,,,0.00,,2013-07-29 20:04:00,
2013-07-29 15:23:00,95.0,67.0,29.97,North,0,0.0,0.0,40,0.00,,,0.00,,2013-07-29 20:23:00,
2013-07-29 15:49:00,98.0,68.0,29.95,North,0,0.0,0.0,38,0.00,,,0.00,,2013-07-29 20:49:00,
2013-07-29 15:58:00,98.0,68.0,29.95,North,0,0.0,0.0,38,0.00,,,0.00,,2013-07-29 20:58:00,
2013-07-29 16:16:00,98.0,68.0,29.95,North,0,0.0,0.0,38,0.00,,,0.00,,2013-07-29 21:16:00,
2013-07-29 16:23:00,98.0,65.0,29.93,North,0,0.0,0.0,34,0.00,,,0.00,,2013-07-29 21:23:00,
2013-07-29 16:24:00,98.0,68.0,29.95,North,0,0.0,0.0,38,0.00,,,0.00,,2013-07-29 21:24:00,
2013-07-29 16:49:00,98.0,65.0,29.93,North,0,0.0,0.0,34,0.00,,,0.00,,2013-07-29 21:49:00,
2013-07-29 17:00:00,98.0,65.0,29.93,North,0,0.0,0.0,34,0.00,,,0.00,,2013-07-29 22:00:00,
2013-07-29 17:15:00,98.0,65.0,29.93,North,0,0.0,0.0,34,0.00,,,0.00,,2013-07-29 22:15:00,
2013-07-29 18:05:00,96.0,68.0,29.92,North,0,0.0,0.0,40,0.00,,,0.00,,2013-07-29 23:05:00,
2013-07-29 18:13:00,96.0,68.0,29.92,North,0,0.0,0.0,40,0.00,,,0.00,,2013-07-29 23:13:00,
2013-07-29 18:26:00,96.0,68.0,29.92,North,0,0.0,0.0,40,0.00,,,0.00,,2013-07-29 23:26:00,
2013-07-29 18:34:00,95.0,68.0,29.92,North,0,0.0,0.0,42,0.00,,,0.00,,2013-07-29 23:34:00,
2013-07-29 18:44:00,95.0,68.0,29.92,North,0,0.0,0.0,42,0.00,,,0.00,,2013-07-29 23:44:00,
2013-07-29 18:57:00,95.0,68.0,29.92,North,0,0.0,0.0,42,0.00,,,0.00,,2013-07-29 23:57:00,
2013-07-29 19:06:00,95.0,68.0,29.92,North,0,0.0,0.0,42,0.00,,,0.00,,2013-07-30 00:06:00,
2013-07-29 19:16:00,92.0,67.0,29.92,North,0,0.0,0.0,44,0.00,,,0.00,,2013-07-30 00:16:00,
2013-07-29 19:24:00,92.0,67.0,29.92,North,0,0.0,0.0,44,0.00,,,0.00,,2013-07-30 00:24:00,
2013-07-29 19:34:00,92.0,67.0,29.92,North,0,0.0,0.0,44,0.00,,,0.00,,2013-07-30 00:34:00,
2013-07-29 19:46:00,92.0,67.0,29.92,North,0,0.0,0.0,44,0.00,,,0.00,,2013-07-30 00:46:00,
2013-07-29 19:54:00,92.0,67.0,29.92,North,0,0.0,0.0,44,0.00,,,0.00,,2013-07-30 00:54:00,
2013-07-29 21:16:00,84.0,68.0,29.97,North,0,0.0,0.0,58,0.00,,,0.00,,2013-07-30 02:16:00,
2013-07-29 21:39:00,84.0,68.0,29.97,North,0,0.0,0.0,58,0.00,,,0.00,,2013-07-30 02:39:00,
2013-07-29 21:46:00,84.0,68.0,29.97,North,0,0.0,0.0,58,0.00,,,0.00,,2013-07-30 02:46:00,
2013-07-29 21:56:00,84.0,68.0,29.97,North,0,0.0,0.0,58,0.00,,,0.00,,2013-07-30 02:56:00,
2013-07-29 22:08:00,84.0,68.0,29.97,North,0,0.0,0.0,58,0.00,,,0.00,,2013-07-30 03:08:00,
2013-07-29 22:42:00,81.0,69.0,30.00,North,0,0.0,0.0,68,0.00,,,0.00,,2013-07-30 03:42:00,
2013-07-29 23:03:00,81.0,69.0,30.00,North,0,0.0,0.0,68,0.00,,,0.00,,2013-07-30 04:03:00,
2013-07-29 23:12:00,81.0,69.0,30.00,North,0,0.0,0.0,68,0.00,,,0.00,,2013-07-30 04:12:00,
2013-07-29 23:23:00,81.0,69.0,30.00,North,0,0.0,0.0,68,0.00,,,0.00,,2013-07-30 04:23:00,
2013-07-29 23:33:00,81.0,69.0,30.00,North,0,0.0,0.0,68,0.00,,,0.00,,2013-07-30 04:33:00,